| time (UTC) | temp F | wind direction | speed MPH | gust MPH | rain 1hr in | rain 24hr in | rain mn in | humidity % | barometer mb |
| 20260906055902 | 56 | 208 | 0.0 | 0.0 | 0.00 | 0.01 | 0.00 | 98 | 1018.6 |
| 20260906055347 | 56 | 208 | 0.0 | 0.0 | 0.00 | 0.01 | 0.00 | 98 | 1018.6 |
| 20260906054852 | 56 | 208 | 0.0 | 0.0 | 0.00 | 0.01 | 0.00 | 98 | 1018.6 |
| 20260906054336 | 56 | 208 | 0.0 | 0.0 | 0.00 | 0.01 | 0.00 | 98 | 1018.6 |
| 20260906053843 | 56 | 208 | 0.0 | 0.0 | 0.00 | 0.01 | 0.00 | 98 | 1018.6 |
| 20260906053330 | 56 | 208 | 0.0 | 0.0 | 0.00 | 0.01 | 0.00 | 98 | 1018.4 |
| 20260906052836 | 56 | 208 | 0.0 | 0.0 | 0.00 | 0.01 | 0.00 | 98 | 1018.4 |
| 20260906052324 | 56 | 208 | 0.0 | 0.0 | 0.00 | 0.01 | 0.00 | 97 | 1018.2 |
| 20260906051830 | 56 | 208 | 0.0 | 0.0 | 0.00 | 0.01 | 0.00 | 97 | 1018.1 |
| 20260906051337 | 56 | 208 | 0.0 | 0.0 | 0.00 | 0.01 | 0.00 | 97 | 1018.2 |
| 20260906050822 | 57 | 208 | 0.0 | 0.0 | 0.00 | 0.01 | 0.00 | 97 | 1018.1 |
| 20260906050328 | 57 | 208 | 0.0 | 0.0 | 0.00 | 0.01 | 0.00 | 98 | 1018.1 |
| 20260906045917 | 57 | 208 | 0.0 | 0.0 | 0.00 | 0.01 | 0.00 | 97 | 1018.1 |
| 20260906045338 | 57 | 208 | 0.0 | 0.0 | 0.00 | 0.01 | 0.00 | 97 | 1018.0 |
| 20260906044907 | 57 | 208 | 0.0 | 0.0 | 0.00 | 0.01 | 0.00 | 97 | 1018.0 |
| 20260906043844 | 57 | 208 | 0.0 | 0.0 | 0.00 | 0.01 | 0.00 | 97 | 1017.9 |
| 20260906042846 | 57 | 208 | 0.0 | 0.0 | 0.00 | 0.01 | 0.00 | 97 | 1017.8 |
| 20260906042413 | 57 | 208 | 0.0 | 0.0 | 0.00 | 0.01 | 0.00 | 97 | 1017.7 |
| 20260906041901 | 58 | 208 | 0.0 | 0.0 | 0.00 | 0.01 | 0.00 | 97 | 1017.6 |
| 20260906040843 | 57 | 208 | 0.0 | 0.0 | 0.00 | 0.01 | 0.00 | 97 | 1017.6 |
| 20260906040412 | 57 | 208 | 0.0 | 0.0 | 0.00 | 0.01 | 0.00 | 97 | 1017.7 |
| 20260906035830 | 58 | 208 | 0.0 | 0.0 | 0.00 | 0.01 | 0.00 | 97 | 1017.7 |
| 20260906035358 | 58 | 208 | 0.0 | 0.0 | 0.00 | 0.01 | 0.00 | 97 | 1017.7 |
| 20260906034821 | 58 | 208 | 0.0 | 0.0 | 0.00 | 0.01 | 0.00 | 97 | 1017.9 |
| 20260906034344 | 58 | 208 | 0.0 | 0.0 | 0.00 | 0.01 | 0.00 | 97 | 1017.9 |
| 20260906033913 | 58 | 208 | 0.0 | 0.0 | 0.00 | 0.01 | 0.00 | 97 | 1017.8 |
| 20260906033330 | 58 | 208 | 0.0 | 0.0 | 0.00 | 0.01 | 0.00 | 97 | 1017.7 |
| 20260906032852 | 59 | 208 | 0.0 | 0.0 | 0.00 | 0.01 | 0.00 | 97 | 1017.6 |
| 20260906032416 | 59 | 208 | 0.0 | 0.0 | 0.00 | 0.01 | 0.00 | 97 | 1017.6 |
| 20260906031941 | 59 | 206 | 0.0 | 0.0 | 0.00 | 0.01 | 0.00 | 97 | 1017.6 |
| 20260906031342 | 59 | 208 | 0.0 | 0.0 | 0.00 | 0.01 | 0.00 | 97 | 1017.7 |
| 20260906030913 | 59 | 208 | 0.0 | 0.0 | 0.00 | 0.01 | 0.00 | 97 | 1017.6 |
| 20260906030327 | 59 | 208 | 0.0 | 0.0 | 0.00 | 0.01 | 0.00 | 97 | 1017.6 |
| 20260906025844 | 59 | 208 | 0.0 | 0.0 | 0.00 | 0.01 | 0.00 | 97 | 1017.6 |
| 20260906025409 | 59 | 208 | 0.0 | 0.0 | 0.00 | 0.01 | 0.00 | 97 | 1017.6 |
| 20260906024827 | 59 | 208 | 0.0 | 0.0 | 0.00 | 0.01 | 0.00 | 97 | 1017.6 |
| 20260906024350 | 59 | 208 | 0.0 | 0.0 | 0.00 | 0.01 | 0.00 | 96 | 1017.5 |
| 20260906023342 | 60 | 208 | 0.0 | 0.0 | 0.00 | 0.01 | 0.00 | 96 | 1017.5 |
| 20260906022343 | 60 | 208 | 0.0 | 0.0 | 0.00 | 0.01 | 0.00 | 96 | 1017.4 |
| 20260906021343 | 60 | 208 | 0.0 | 0.0 | 0.00 | 0.01 | 0.00 | 96 | 1017.4 |
| 20260906020350 | 61 | 208 | 0.0 | 0.0 | 0.00 | 0.01 | 0.00 | 96 | 1017.3 |
| 20260906015911 | 61 | 208 | 0.0 | 0.0 | 0.00 | 0.01 | 0.00 | 95 | 1017.2 |
| 20260906015433 | 61 | 208 | 0.0 | 0.0 | 0.00 | 0.01 | 0.00 | 95 | 1017.1 |
| 20260906014829 | 62 | 206 | 0.0 | 0.0 | 0.00 | 0.01 | 0.00 | 95 | 1017.1 |
| 20260906014353 | 62 | 208 | 0.0 | 0.0 | 0.00 | 0.01 | 0.00 | 95 | 1017.1 |
| 20260906013914 | 63 | 208 | 0.0 | 0.0 | 0.00 | 0.01 | 0.00 | 95 | 1017.1 |
| 20260906013416 | 63 | 208 | 0.0 | 0.0 | 0.00 | 0.01 | 0.00 | 95 | 1017.0 |
| 20260906012837 | 63 | 206 | 0.0 | 0.0 | 0.00 | 0.01 | 0.00 | 95 | 1017.1 |
| 20260906012400 | 63 | 206 | 0.0 | 0.0 | 0.00 | 0.01 | 0.00 | 95 | 1017.1 |
| 20260906011902 | 63 | 206 | 0.0 | 0.0 | 0.00 | 0.01 | 0.00 | 94 | 1017.1 |
| 20260906011431 | 63 | 208 | 0.0 | 0.0 | 0.00 | 0.01 | 0.00 | 94 | 1017.1 |
| 20260906010934 | 64 | 206 | 0.0 | 0.0 | 0.00 | 0.01 | 0.00 | 93 | 1017.0 |
| 20260906010324 | 64 | 206 | 0.0 | 0.0 | 0.00 | 0.01 | 0.00 | 92 | 1017.0 |
| 20260906005854 | 65 | 206 | 0.0 | 0.0 | 0.00 | 0.01 | 0.00 | 92 | 1016.9 |
| 20260906005416 | 65 | 206 | 0.0 | 0.0 | 0.00 | 0.01 | 0.00 | 91 | 1016.8 |
| 20260906004940 | 66 | 206 | 0.0 | 0.0 | 0.00 | 0.01 | 0.00 | 90 | 1016.7 |
| 20260906004421 | 66 | 208 | 0.0 | 0.0 | 0.00 | 0.01 | 0.00 | 89 | 1016.8 |
| 20260906003842 | 67 | 208 | 0.0 | 0.0 | 0.00 | 0.01 | 0.00 | 89 | 1016.7 |
| 20260906003406 | 67 | 208 | 0.0 | 0.0 | 0.00 | 0.01 | 0.00 | 87 | 1016.7 |
| 20260906002825 | 68 | 208 | 0.0 | 1.0 | 0.00 | 0.01 | 0.00 | 86 | 1016.7 |
| 20260906002357 | 69 | 208 | 0.0 | 0.0 | 0.00 | 0.01 | 0.00 | 84 | 1016.7 |
| 20260906001907 | 70 | 208 | 0.0 | 0.0 | 0.00 | 0.01 | 0.00 | 83 | 1016.7 |
| 20260906000844 | 73 | 208 | 0.0 | 0.0 | 0.00 | 0.01 | 0.00 | 77 | 1016.7 |
| 20260906000403 | 75 | 208 | 0.0 | 0.0 | 0.00 | 0.01 | 0.00 | 76 | 1016.7 |
| 20260905235823 | 77 | 208 | 0.0 | 1.0 | 0.00 | 0.01 | 0.00 | 74 | 1016.7 |
| 20260905235349 | 78 | 208 | 0.0 | 1.0 | 0.00 | 0.01 | 0.00 | 72 | 1016.6 |
| 20260905234351 | 79 | 301 | 0.0 | 0.0 | 0.00 | 0.01 | 0.00 | 70 | 1016.5 |
| 20260905233853 | 79 | 302 | 0.0 | 0.0 | 0.00 | 0.01 | 0.00 | 71 | 1016.5 |
| 20260905233416 | 78 | 302 | 0.0 | 0.0 | 0.00 | 0.01 | 0.00 | 71 | 1016.5 |
| 20260905232919 | 78 | 301 | 0.0 | 0.0 | 0.00 | 0.01 | 0.00 | 71 | 1016.6 |
| 20260905232342 | 78 | 302 | 0.0 | 1.0 | 0.00 | 0.01 | 0.00 | 71 | 1016.5 |
| 20260905231911 | 78 | 302 | 0.0 | 1.0 | 0.00 | 0.01 | 0.00 | 70 | 1016.6 |
| 20260905231335 | 78 | 79 | 0.0 | 1.0 | 0.00 | 0.01 | 0.00 | 70 | 1016.7 |
| 20260905230905 | 78 | 78 | 0.0 | 1.0 | 0.00 | 0.01 | 0.00 | 70 | 1016.5 |
| 20260905230430 | 78 | 78 | 0.0 | 2.0 | 0.00 | 0.01 | 0.00 | 69 | 1016.5 |
| 20260905225828 | 79 | 213 | 0.0 | 0.0 | 0.00 | 0.01 | 0.00 | 68 | 1016.5 |
| 20260905225349 | 81 | 213 | 0.0 | 0.0 | 0.00 | 0.01 | 0.00 | 65 | 1016.5 |
| 20260905224914 | 81 | 213 | 0.0 | 0.0 | 0.00 | 0.01 | 0.00 | 66 | 1016.5 |
| 20260905224330 | 80 | 213 | 0.0 | 0.0 | 0.00 | 0.01 | 0.00 | 69 | 1016.6 |
| 20260905223859 | 79 | 213 | 0.0 | 0.0 | 0.00 | 0.01 | 0.00 | 67 | 1016.7 |
| 20260905223418 | 78 | 213 | 0.0 | 0.0 | 0.00 | 0.01 | 0.00 | 70 | 1016.7 |
| 20260905222841 | 76 | 213 | 0.0 | 0.0 | 0.00 | 0.01 | 0.00 | 75 | 1016.7 |
| 20260905222410 | 76 | 213 | 0.0 | 0.0 | 0.00 | 0.01 | 0.00 | 75 | 1016.7 |
| 20260905221832 | 77 | 212 | 0.0 | 0.0 | 0.00 | 0.01 | 0.00 | 73 | 1016.8 |
| 20260905221356 | 77 | 213 | 0.0 | 0.0 | 0.00 | 0.01 | 0.00 | 72 | 1016.8 |
| 20260905220916 | 78 | 213 | 0.0 | 0.0 | 0.00 | 0.01 | 0.00 | 71 | 1016.7 |
| 20260905220343 | 78 | 213 | 0.0 | 1.0 | 0.00 | 0.02 | 0.00 | 68 | 1016.7 |
| 20260905215911 | 78 | 213 | 0.0 | 1.0 | 0.00 | 0.02 | 0.00 | 69 | 1016.7 |
| 20260905215329 | 78 | 213 | 0.0 | 1.0 | 0.00 | 0.02 | 0.00 | 69 | 1016.7 |
| 20260905214853 | 78 | 146 | 0.0 | 1.0 | 0.00 | 0.02 | 0.00 | 65 | 1016.6 |
| 20260905214401 | 78 | 147 | 0.0 | 1.0 | 0.00 | 0.02 | 0.00 | 68 | 1016.6 |
| 20260905213329 | 76 | 215 | 0.0 | 0.0 | 0.00 | 0.02 | 0.00 | 75 | 1016.6 |
| 20260905212854 | 76 | 215 | 0.0 | 0.0 | 0.00 | 0.02 | 0.00 | 79 | 1016.6 |
| 20260905212401 | 76 | 335 | 0.0 | 0.0 | 0.00 | 0.02 | 0.00 | 76 | 1016.6 |
| 20260905211910 | 76 | 52 | 0.0 | 0.0 | 0.00 | 0.02 | 0.00 | 74 | 1016.5 |
| 20260905211327 | 76 | 52 | 0.0 | 1.0 | 0.00 | 0.02 | 0.00 | 73 | 1016.5 |
| 20260905210849 | 76 | 52 | 0.0 | 1.0 | 0.00 | 0.02 | 0.00 | 73 | 1016.6 |
| 20260905210417 | 76 | 52 | 0.0 | 0.0 | 0.00 | 0.02 | 0.00 | 70 | 1016.6 |
| 20260905205841 | 77 | 52 | 0.0 | 0.0 | 0.00 | 0.02 | 0.00 | 70 | 1016.7 |
| 20260905205351 | 77 | 52 | 0.0 | 1.0 | 0.00 | 0.02 | 0.00 | 68 | 1016.7 |